Location: Newcastle Observatory
(43.9158°N, 78.5831°W)
Time: 05:50:36
(UTC-04:00)

Amateur Radio Satellites - All Passes

Search period start: 22 August 2014 05:20
Search period end: 23 August 2014 05:20
Location: Newcastle Observatory, 43.9158°N, 78.5831°W

Satellite Date Start Highest point End Downlink Frequencies (MHz)
Time Altitude Azimuth
Uribyol 2 22 Aug 05:32:13 05:33:31 11° 305° (NW) 05:34:48 436.500 FM
JAS-1B 22 Aug 05:33:35 05:39:28 25° 306° (NW) 05:44:40 435.800 - 435.900 CW/SSB
STRAND 1 22 Aug 05:39:01 05:41:47 15° 58° (ENE) 05:44:33 ?
OPAL 22 Aug 05:48:48 05:52:34 21° 265° (W) 05:56:23 ?
Uosat F 22 Aug 05:53:00 05:58:02 81° 286° (WNW) 06:03:01 435.120 FM
Sapphire 22 Aug 05:58:46 06:03:03 24° 252° (WSW) 06:07:20 437.095 MHz 1200 baud AX-25 AFSK
JAS-2 22 Aug 06:04:19 06:06:46 13° 89° (E) 06:09:15 435.800 - 435.900 CW/SSB, 435.910 FM
KITSAT 1 22 Aug 06:14:39 06:18:57 15° 353° (N) 06:23:14 435.175 FM
TMSAT-1 22 Aug 06:16:22 06:18:56 14° 303° (WNW) 06:21:29 436.925 FM
PCSat 22 Aug 06:31:10 06:33:12 12° 258° (WSW) 06:35:12 145.825 MHz
SO-50 22 Aug 06:51:25 06:55:53 81° 123° (ESE) 07:00:29 436.795 FM
Hamsat 22 Aug 06:53:15 06:57:27 45° 98° (E) 07:01:38 145.90 MHz
AO-7 22 Aug 07:06:35 07:14:15 43° 300° (WNW) 07:21:53 29.400 - 29.500 MHz
STRAND 1 22 Aug 07:15:12 07:20:19 81° 256° (WSW) 07:25:27 ?
Uosat F 22 Aug 07:34:21 07:36:00 12° 304° (NW) 07:37:38 435.120 FM
RS-15 22 Aug 07:34:44 07:37:34 11° 94° (E) 07:40:23 29.354 - 29.394 USB, Beacon 29.352 USB
JAS-2 22 Aug 07:47:20 07:52:31 73° 286° (WNW) 07:57:46 435.800 - 435.900 CW/SSB, 435.910 FM
SO-67 22 Aug 08:01:56 08:05:11 36° 98° (E) 08:08:24 435.3500 MHz FM
UOSAT-12 22 Aug 08:04:20 08:08:34 37° 116° (ESE) 08:12:53 437.025 FM, 437.400 FM
KITSAT 1 22 Aug 08:12:31 08:18:10 20° 24° (NNE) 08:23:47 435.175 FM
Saudisat 1A 22 Aug 08:14:59 08:16:44 12° 31° (NNE) 08:18:29 436.775 MHz
Hamsat 22 Aug 08:30:02 08:33:06 19° 295° (WNW) 08:36:08 145.90 MHz
SO-50 22 Aug 08:33:56 08:37:03 18° 324° (NW) 08:40:14 436.795 FM
AO-7 22 Aug 09:02:49 09:04:51 11° 323° (NW) 09:06:53 29.400 - 29.500 MHz
HO-68 22 Aug 09:32:37 09:38:53 32° 95° (E) 09:45:08 435.675 MHz FM
UKube-1 22 Aug 09:34:22 09:36:27 13° 91° (E) 09:38:31 145.840 MHz, 145.915 MHz
SO-67 22 Aug 09:35:59 09:37:56 15° 294° (WNW) 09:39:53 435.3500 MHz FM
RS-15 22 Aug 09:36:36 09:47:22 60° 115° (ESE) 09:57:58 29.354 - 29.394 USB, Beacon 29.352 USB
UOSAT-12 22 Aug 09:44:35 09:48:45 32° 315° (NW) 09:53:01 437.025 FM, 437.400 FM
Oscar 11 22 Aug 09:50:38 09:52:34 13° 89° (E) 09:54:28 145.825 FM, Beacon 2401.500 USB
Saudisat 1A 22 Aug 09:52:54 09:57:16 58° 52° (NE) 10:01:36 436.775 MHz
KITSAT 1 22 Aug 10:07:41 10:15:37 55° 50° (NE) 10:23:28 435.175 FM
UKube-1 22 Aug 11:08:46 11:13:03 61° 287° (WNW) 11:17:19 145.840 MHz, 145.915 MHz
HO-68 22 Aug 11:19:57 11:26:51 53° 294° (WNW) 11:33:43 435.675 MHz FM
FUNcube-1 22 Aug 11:24:29 11:28:48 50° 100° (E) 11:33:12 145.950 - 145.970 MHz USB
Oscar 11 22 Aug 11:24:50 11:29:11 64° 286° (WNW) 11:33:29 145.825 FM, Beacon 2401.500 USB
Saudisat 1A 22 Aug 11:33:34 11:36:25 17° 249° (WSW) 11:39:15 436.775 MHz
RS-15 22 Aug 11:49:33 12:00:04 48° 320° (NW) 12:10:34 29.354 - 29.394 USB, Beacon 29.352 USB
KITSAT 1 22 Aug 12:03:29 12:10:46 39° 250° (WSW) 12:18:02 435.175 FM
JAS-1B 22 Aug 12:38:31 12:45:02 21° 51° (NE) 12:51:12 435.800 - 435.900 CW/SSB
FUNcube-1 22 Aug 13:01:53 13:04:51 18° 296° (WNW) 13:07:51 145.950 - 145.970 MHz USB
Oscar 19 22 Aug 13:06:53 13:11:25 32° 66° (ENE) 13:15:59 437.125 CW, 437.150 USB
AO-Echo 22 Aug 13:10:16 13:13:36 18° 62° (ENE) 13:16:53 ?
HO-68 22 Aug 13:10:46 13:12:59 12° 315° (NW) 13:15:12 435.675 MHz FM
ITAMSAT 1 22 Aug 13:19:09 13:22:52 21° 61° (ENE) 13:26:36 435.822 SSB
Gurwin Techsat 1B 22 Aug 13:24:21 13:25:22 11° 54° (NE) 13:26:24 435.225 FM
Uribyol 2 22 Aug 13:30:53 13:35:09 27° 64° (ENE) 13:39:25 436.500 FM
Oscar 16 22 Aug 13:39:26 13:44:30 65° 72° (ENE) 13:49:38 437.025 USB, Beacon 2401.1428
SO-50 22 Aug 13:41:54 13:45:23 20° 38° (NE) 13:48:53 436.795 FM
AO-27 22 Aug 13:44:34 13:49:11 34° 66° (ENE) 13:53:48 436.795 MHz FM
ISS 22 Aug 13:52:22 13:54:58 21° 135° (SE) 13:57:34 145.800 FM
RS-15 22 Aug 14:07:24 14:16:00 25° 352° (N) 14:24:41 29.354 - 29.394 USB, Beacon 29.352 USB
TMSAT-1 22 Aug 14:18:24 14:22:29 23° 63° (ENE) 14:26:35 436.925 FM
JAS-1B 22 Aug 14:24:16 14:34:07 72° 70° (ENE) 14:43:20 435.800 - 435.900 CW/SSB
AO-7 22 Aug 14:25:24 14:30:37 19° 46° (NE) 14:35:50 29.400 - 29.500 MHz
MaSat-1 22 Aug 14:38:34 14:41:02 14° 99° (E) 14:43:35 437.345 MHz
Oscar 19 22 Aug 14:46:04 14:50:42 34° 264° (W) 14:55:23 437.125 CW, 437.150 USB
AO-Echo 22 Aug 14:46:46 14:51:54 66° 258° (WSW) 14:56:55 ?
UOSAT-12 22 Aug 14:53:52 14:55:40 12° 28° (NNE) 14:57:27 437.025 FM, 437.400 FM
ITAMSAT 1 22 Aug 14:56:51 15:01:57 58° 259° (W) 15:07:04 435.822 SSB
Gurwin Techsat 1B 22 Aug 14:59:06 15:04:21 69° 73° (ENE) 15:09:39 435.225 FM
Uribyol 2 22 Aug 15:09:33 15:14:25 42° 262° (W) 15:19:19 436.500 FM
Oscar 16 22 Aug 15:21:09 15:24:20 16° 270° (W) 15:27:32 437.025 USB, Beacon 2401.1428
SO-50 22 Aug 15:21:43 15:26:30 78° 237° (WSW) 15:31:20 436.795 FM
AO-27 22 Aug 15:24:02 15:28:40 33° 264° (W) 15:33:19 436.795 MHz FM
ISS 22 Aug 15:28:11 15:31:28 56° 333° (NNW) 15:34:45 145.800 FM
Uosat F 22 Aug 15:30:30 15:34:17 22° 62° (ENE) 15:38:04 435.120 FM
TMSAT-1 22 Aug 15:56:56 16:02:04 51° 260° (W) 16:07:14 436.925 FM
MaSat-1 22 Aug 16:12:34 16:17:22 78° 298° (WNW) 16:22:34 437.345 MHz
AO-7 22 Aug 16:13:44 16:22:00 71° 67° (ENE) 16:30:18 29.400 - 29.500 MHz
JAS-1B 22 Aug 16:16:30 16:25:02 33° 268° (W) 16:33:16 435.800 - 435.900 CW/SSB
OPAL 22 Aug 16:19:35 16:21:07 11° 90° (E) 16:22:38 ?
RS-15 22 Aug 16:23:12 16:32:52 33° 27° (NNE) 16:42:44 29.354 - 29.394 USB, Beacon 29.352 USB
UOSAT-12 22 Aug 16:32:21 16:36:58 49° 50° (NE) 16:41:30 437.025 FM, 437.400 FM
Gurwin Techsat 1B 22 Aug 16:41:36 16:44:50 16° 270° (W) 16:48:05 435.225 FM
ISS 22 Aug 17:05:59 17:08:42 22° 352° (N) 17:11:24 145.800 FM
Uosat F 22 Aug 17:07:52 17:12:44 50° 260° (W) 17:17:38 435.120 FM
Hamsat 22 Aug 17:47:55 17:51:53 38° 70° (ENE) 17:55:54 145.90 MHz
MaSat-1 22 Aug 17:52:30 17:55:24 15° 319° (NW) 17:58:23 437.345 MHz
OPAL 22 Aug 17:55:27 18:00:42 87° 107° (ESE) 18:05:56 ?
JAS-2 22 Aug 17:59:58 18:06:25 57° 71° (ENE) 18:12:08 435.800 - 435.900 CW/SSB, 435.910 FM
AO-7 22 Aug 18:08:39 18:15:25 27° 266° (W) 18:22:15 29.400 - 29.500 MHz
UOSAT-12 22 Aug 18:13:08 18:16:49 23° 248° (WSW) 18:20:26 437.025 FM, 437.400 FM
RS-15 22 Aug 18:35:55 18:47:02 84° 55° (NE) 18:58:34 29.354 - 29.394 USB, Beacon 29.352 USB
SO-67 22 Aug 18:37:17 18:39:32 17° 67° (ENE) 18:41:47 435.3500 MHz FM
ISS 22 Aug 18:43:19 18:46:10 25° 13° (NNE) 18:49:01 145.800 FM
Sapphire 22 Aug 18:58:12 19:03:04 35° 111° (ESE) 19:07:57 437.095 MHz 1200 baud AX-25 AFSK
STRAND 1 22 Aug 19:24:47 19:29:16 30° 96° (E) 19:33:43 ?
Hamsat 22 Aug 19:24:47 19:27:59 20° 268° (W) 19:31:13 145.90 MHz
PCSat 22 Aug 19:28:02 19:33:23 68° 117° (ESE) 19:38:48 145.825 MHz
OPAL 22 Aug 19:36:02 19:38:52 15° 304° (NW) 19:41:42 ?
JAS-2 22 Aug 19:46:28 19:51:43 25° 266° (W) 19:56:33 435.800 - 435.900 CW/SSB, 435.910 FM
HO-68 22 Aug 20:03:12 20:09:08 30° 58° (ENE) 20:15:05 435.675 MHz FM
SO-67 22 Aug 20:09:14 20:12:21 31° 263° (W) 20:15:30 435.3500 MHz FM
ISS 22 Aug 20:19:54 20:23:15 86° 32° (NNE) 20:26:35 145.800 FM
UKube-1 22 Aug 20:31:27 20:34:00 15° 62° (ENE) 20:36:32 145.840 MHz, 145.915 MHz
Sapphire 22 Aug 20:41:26 20:46:27 38° 310° (NW) 20:51:30 437.095 MHz 1200 baud AX-25 AFSK
Oscar 11 22 Aug 20:47:39 20:49:39 13° 61° (ENE) 20:51:40 145.825 FM, Beacon 2401.500 USB
RS-15 22 Aug 20:49:26 20:58:11 28° 257° (WSW) 21:07:13 29.354 - 29.394 USB, Beacon 29.352 USB
STRAND 1 22 Aug 21:03:53 21:08:28 35° 293° (WNW) 21:13:03 ?
PCSat 22 Aug 21:13:01 21:17:19 23° 317° (NW) 21:21:38 145.825 MHz
HO-68 22 Aug 21:49:21 21:56:24 61° 257° (WSW) 22:03:29 435.675 MHz FM
ISS 22 Aug 21:57:52 21:59:33 13° 228° (SW) 22:01:14 145.800 FM
UKube-1 22 Aug 22:05:28 22:09:45 58° 259° (WSW) 22:14:03 145.840 MHz, 145.915 MHz
Oscar 11 22 Aug 22:20:58 22:25:16 69° 258° (WSW) 22:29:37 145.825 FM, Beacon 2401.500 USB
FUNcube-1 22 Aug 22:22:33 22:26:30 46° 72° (ENE) 22:30:32 145.950 - 145.970 MHz USB
FUNcube-1 23 Aug 00:00:39 00:03:11 16° 269° (W) 00:05:45 145.950 - 145.970 MHz USB
MaSat-1 23 Aug 00:29:25 00:34:02 38° 54° (NE) 00:38:10 437.345 MHz
KITSAT 1 23 Aug 00:38:43 00:45:19 29° 106° (ESE) 00:51:55 435.175 FM
Saudisat 1A 23 Aug 01:39:40 01:44:05 88° 123° (ESE) 01:48:32 436.775 MHz
Oscar 16 23 Aug 01:50:33 01:54:26 21° 92° (E) 01:58:17 437.025 USB, Beacon 2401.1428
Sapphire 23 Aug 02:03:25 02:04:28 11° 28° (NNE) 02:05:31 437.095 MHz 1200 baud AX-25 AFSK
MaSat-1 23 Aug 02:06:58 02:10:55 26° 256° (WSW) 02:14:28 437.345 MHz
JAS-1B 23 Aug 02:12:47 02:16:48 15° 82° (E) 02:20:29 435.800 - 435.900 CW/SSB
KITSAT 1 23 Aug 02:31:59 02:40:04 70° 306° (NW) 02:48:10 435.175 FM
PCSat 23 Aug 02:32:23 02:35:40 16° 36° (NE) 02:38:57 145.825 MHz
AO-Echo 23 Aug 02:52:59 02:57:19 34° 97° (E) 03:01:34 ?
Oscar 19 23 Aug 02:55:31 03:00:45 78° 103° (ESE) 03:05:57 437.125 CW, 437.150 USB
ITAMSAT 1 23 Aug 03:08:18 03:13:16 45° 99° (E) 03:18:13 435.822 SSB
Gurwin Techsat 1B 23 Aug 03:14:32 03:18:50 25° 93° (E) 03:23:06 435.225 FM
Uribyol 2 23 Aug 03:20:26 03:25:35 62° 102° (ESE) 03:30:43 436.500 FM
Saudisat 1A 23 Aug 03:21:28 03:24:17 16° 324° (NW) 03:27:07 436.775 MHz
Oscar 16 23 Aug 03:29:01 03:34:05 52° 289° (WNW) 03:39:06 437.025 USB, Beacon 2401.1428
OPAL 23 Aug 03:34:25 03:38:28 25° 61° (ENE) 03:42:35 ?
AO-27 23 Aug 03:34:52 03:40:05 81° 104° (ESE) 03:45:16 436.795 MHz FM
Sapphire 23 Aug 03:44:19 03:49:28 41° 51° (NE) 03:54:33 437.095 MHz 1200 baud AX-25 AFSK
JAS-1B 23 Aug 04:01:12 04:08:49 88° 286° (WNW) 04:15:07 435.800 - 435.900 CW/SSB
TMSAT-1 23 Aug 04:11:10 04:16:24 58° 101° (E) 04:21:36 436.925 FM
PCSat 23 Aug 04:14:38 04:20:05 72° 57° (ENE) 04:25:29 145.825 MHz
AO-7 23 Aug 04:15:10 04:20:54 20° 90° (E) 04:26:34 29.400 - 29.500 MHz
KITSAT 1 23 Aug 04:30:49 04:37:02 23° 330° (NNW) 04:43:17 435.175 FM
AO-Echo 23 Aug 04:32:01 04:35:58 27° 294° (WNW) 04:39:53 ?
Oscar 19 23 Aug 04:36:25 04:39:27 16° 301° (WNW) 04:42:29 437.125 CW, 437.150 USB
ITAMSAT 1 23 Aug 04:48:21 04:52:30 25° 297° (WNW) 04:56:39 435.822 SSB
Gurwin Techsat 1B 23 Aug 04:53:56 04:59:00 46° 291° (WNW) 05:04:01 435.225 FM
Uribyol 2 23 Aug 05:01:01 05:04:35 19° 299° (WNW) 05:08:08 436.500 FM
